格洛纳斯-740 COSMOS 1947 [GLONASS]

导读

COSMOS 1947是苏联/独联体(CIS)于1988年5月21日发射的GLONASS全球导航卫星系统组网卫星。作为苏联冷战时期格洛纳斯系统建设的重要组成部分,它承担全球定位、导航与授时服务功能,为后续GLONASS系统完成24颗卫星组网、实现全球覆盖奠定了基础,是苏联打破美国GPS垄断、推进自主导航体系建设的关键一步。

基本信息
目录编号:
19164
目录名称:
COSMOS 1947 (GLONASS)
国际标识:
1988-043B
轨道中心:
EARTH
卫星名称:
格洛纳斯-740
卫星全名:
格洛纳斯-740 COSMOS 1947 [GLONASS]
卫星状态:
在轨 (已飞行13901 天)
发射日期:
1988-05-21 UTC
国别 :
俄罗斯(独联体) (CIS)
星等 :
--
轨道信息
数据来源 国际轨道数据 AOE轨道数据
星历时间 2026-06-11T15:51:32+0800
1天前
查看轨道信息
2026-06-10T19:00:00+0800
2天前
查看轨道信息
半长轴 25507.873km 25507.817km
偏心率 0.0023741 0.002362
轨道倾角 64.961° 64.960°
近地点辐角 225.361° 225.160°
升交点赤经 73.729° 73.759°
平近点角 322.666° 16.102°
近地点 19069.177km 19069.43km
远地点 19190.295km 19189.93km
周期 675.727分钟 675.725分钟
每日圈数 2.131039 2.131046
详细信息
平衡模式:
三轴稳定
覆盖范围:
全球
运营商:
列舍特涅夫卫星信息系统
运营商所在国:
俄罗斯
制造商(研发单位):
列舍特涅夫卫星信息系统
制造商所在国:
俄罗斯
使用方式:
暂无
卫星简介
格洛纳斯(GLONASS )是苏联/俄罗斯研制卫星导航系统。标准配置为24颗卫星,其中18颗卫星就能保证该系统为俄罗斯境内用户提供全部服务。该卫星已退役。
2D轨道图
3D轨道图
轨道高度分析图
轨道倾角分析图
轨道综合分析图
查看轨道综合分析图